Location: Newark
(44.3681°N, 100.3364°W)
Time: 11:22:32
(UTC+00:00)

deb Explorer IX - Pass Details

Date: 25 February 2020
Orbit: 547 x 1100 km, 38.8° (Epoch: 06 April)

Event Time Altitude Azimuth Distance (km) Brightness Sun altitude
Rises 19:55:38 0° 267° (W) 2,753 ? 34.8°
Reaches altitude 10° 19:58:14 10° 253° (WSW) 1,824 ? 34.7°
Maximum altitude 20:01:33 24° 199° (SSW) 1,165 ? 34.5°
Drops below altitude 10° 20:04:52 10° 145° (SE) 1,823 ? 34.3°
Sets 20:07:28 0° 131° (SE) 2,751 ? 34.1°
